User: anonymous
Location: Unspecified
(0.0000°N, 0.0000°E)
Time: 23:05:57
(UTC+02:00)
Language:

ARIANE 5 DEB (SYLDA) - Orbit

View from above orbital plane
View from above orbital plane
View from above satellite
View from above satellite

Ground track
Ground track

The orbit data is extracted from the following two-line orbital elements,

1 32770U 08018D   14113.23152867  .00800518 -52722-6  64613-2 0  5670
2 32770 001.4101 112.3901 5395419 324.6816 101.0886 05.12057365 67417
Epoch (UTC): 23 April 2014 05:33:24
Eccentricity: 0.5395419
inclination: 1.4101°
perigee height: 169 km
apogee height: 15512 km
right ascension of ascending node: 112.3901°
argument of perigee: 324.6816°
revolutions per day: 5.12057365
mean anomaly at epoch: 101.0886°
orbit number at epoch: 6741

The dashed part of the orbit path shows where the satellite is in the earth's shadow,  

DLR